Location: Meylan - GAD - Ancien Couvent des Capucins
(45.2229°N, 5.7790°E)
Time: 11:13:24
(UTC+01:00)

ISS - Visible Passes

Search period start: 17 February 2019 00:00
Search period end: 27 February 2019 00:00
Orbit: 403 x 411 km, 51.6° (Epoch: 17 February)

Date Brightness Start Highest point End Pass type
(mag) Time Alt. Az. Time Alt. Az. Time Alt. Az.
21 Feb -0.1 06:41:42 10° SE 06:41:50 10° SE 06:41:58 10° SE visible
23 Feb -1.4 06:32:26 10° SSW 06:35:04 23° SE 06:37:42 10° E visible
24 Feb -0.9 05:42:10 10° SSE 05:43:46 13° SE 05:45:24 10° ESE visible
25 Feb -3.0 06:25:13 10° SW 06:28:23 50° SE 06:31:35 10° ENE visible
26 Feb -2.1 05:35:45 22° S 05:36:59 29° SE 05:39:51 10° ENE visible
